Location: Mentone
(34.5413°N, 85.5351°W)
Time: 07:30:27
(UTC-05:00)

Tiros 1 despin weight - All Passes

Search period start: 05 August 2015 00:00
Search period end: 15 August 2015 00:00
Orbit: 597 x 647 km, 48.2° (Epoch: 04 August)

Date Brightness Start Highest point End Pass type
(mag) Time Alt. Az. Time Alt. Az. Time Alt. Az.
05 Aug - 01:26:32 10° WNW 01:31:11 65° SW 01:35:50 10° SE night (unlit)
05 Aug - 17:13:08 10° SSW 17:17:20 41° SE 17:21:37 10° ENE daylight
05 Aug - 18:54:52 10° W 18:59:02 35° NNW 19:03:16 10° NE daylight
05 Aug - 20:38:55 10° NW 20:41:44 16° N 20:44:34 10° NNE visible
05 Aug - 22:21:43 10° NNW 22:24:48 17° NNE 22:27:58 10° NE visible
06 Aug - 00:02:51 10° NW 00:07:21 47° NNE 00:11:54 10° ESE visible
06 Aug - 01:44:47 10° WNW 01:48:56 31° SW 01:53:02 10° SSE night (unlit)
06 Aug - 15:52:10 10° SSE 15:53:57 12° SE 15:55:57 10° ESE daylight
06 Aug - 17:30:39 10° SW 17:35:07 89° SE 17:39:41 10° NE daylight
06 Aug - 19:13:36 10° WNW 19:17:15 23° NNW 19:20:55 10° NNE daylight
06 Aug - 20:57:38 10° NW 21:00:12 15° N 21:02:47 10° NE visible
06 Aug - 22:39:27 10° NNW 22:43:09 23° NNE 22:46:56 10° ENE visible
07 Aug - 00:20:38 10° NW 00:25:19 88° NE 00:30:02 10° SE visible
07 Aug - 02:04:00 10° W 02:06:34 14° SW 02:08:58 10° SSW night (unlit)
07 Aug - 16:07:48 10° SSW 16:11:34 28° SE 16:15:27 10° ENE daylight
07 Aug - 17:48:44 10° WSW 17:53:05 47° NNW 17:57:29 10° NE daylight
07 Aug - 19:32:33 10° NW 19:35:37 17° NNW 19:38:38 10° NNE daylight
07 Aug - 21:15:51 10° NNW 21:18:39 16° N 21:21:31 10° NE visible
07 Aug - 22:57:06 10° NW 23:01:22 35° NNE 23:05:42 10° E visible
08 Aug - 00:38:40 10° WNW 00:43:07 44° SW 00:47:35 10° SSE visible
08 Aug - 16:24:54 10° SW 16:29:17 62° SE 16:33:45 10° ENE daylight
08 Aug - 18:07:18 10° W 18:11:12 28° NNW 18:15:08 10° NE daylight
08 Aug - 19:51:26 10° NW 19:54:02 15° N 19:56:38 10° NNE daylight
08 Aug - 21:33:41 10° NNW 21:37:04 20° NNE 21:40:29 10° ENE visible
08 Aug - 23:14:48 10° NW 23:19:25 63° NE 23:24:04 10° ESE visible
09 Aug - 00:57:15 10° W 01:00:49 21° SW 01:04:17 10° S night (unlit)
09 Aug - 15:02:46 10° S 15:05:50 19° SE 15:09:02 10° E daylight
09 Aug - 16:42:43 10° WSW 16:47:09 65° NW 16:51:39 10° NE daylight
09 Aug - 18:26:11 10° WNW 18:29:29 19° NNW 18:32:47 10° NNE daylight
09 Aug - 20:09:55 10° NNW 20:12:30 15° N 20:15:07 10° NE visible
09 Aug - 21:51:21 10° NW 21:55:20 28° NNE 21:59:23 10° E visible
09 Aug - 23:32:40 10° WNW 23:37:17 65° SW 23:41:55 10° SE visible
10 Aug - 15:19:20 10° SSW 15:23:29 41° SE 15:27:43 10° ENE daylight
10 Aug - 17:01:04 10° W 17:05:11 35° NNW 17:09:21 10° NE daylight
10 Aug - 18:45:08 10° NW 18:47:52 15° N 18:50:37 10° NNE daylight
10 Aug - 20:27:54 10° NNW 20:30:56 17° NNE 20:34:01 10° NE visible
10 Aug - 22:09:00 10° NW 22:13:28 46° NNE 22:17:58 10° ESE visible
10 Aug - 23:50:55 10° WNW 23:55:02 30° SW 23:59:06 10° SSE visible
11 Aug - 13:58:22 10° SSE 14:00:05 12° SE 14:02:01 10° ESE daylight
11 Aug - 15:36:50 10° SW 15:41:16 89° SE 15:45:46 10° NE daylight
11 Aug - 17:19:48 10° WNW 17:23:24 23° NNW 17:26:59 10° NNE daylight
11 Aug - 19:03:51 10° NNW 19:06:19 14° N 19:08:49 10° NNE daylight
11 Aug - 20:45:37 10° NNW 20:49:16 23° NNE 20:52:59 10° ENE visible
11 Aug - 22:26:46 10° NW 22:31:25 88° NE 22:36:05 10° SE visible
12 Aug - 00:10:08 10° W 00:12:40 14° SW 00:15:01 10° SSW night (unlit)
12 Aug - 14:13:59 10° SSW 14:17:43 28° SE 14:21:33 10° ENE daylight
12 Aug - 15:54:55 10° WSW 15:59:12 46° NNW 16:03:34 10° NE daylight
12 Aug - 17:38:45 10° NW 17:41:43 17° NNW 17:44:41 10° NNE daylight
12 Aug - 19:22:03 10° NNW 19:24:46 15° N 19:27:33 10° NE daylight
12 Aug - 21:03:14 10° NW 21:07:27 35° NNE 21:11:45 10° E visible
12 Aug - 22:44:48 10° WNW 22:49:12 44° SW 22:53:39 10° SSE visible
13 Aug - 14:31:04 10° SW 14:35:25 61° SE 14:39:50 10° ENE daylight
13 Aug - 16:13:28 10° W 16:17:20 28° NNW 16:21:12 10° NE daylight
13 Aug - 17:57:38 10° NW 18:00:08 14° N 18:02:39 10° NNE daylight
13 Aug - 19:39:52 10° NNW 19:43:09 19° NNE 19:46:31 10° ENE daylight
13 Aug - 21:20:56 10° NW 21:25:30 63° NE 21:30:06 10° ESE visible
13 Aug - 23:03:23 10° W 23:06:53 21° SW 23:10:19 10° S visible
14 Aug - 13:08:56 10° S 13:11:58 19° SE 13:15:07 10° E daylight
14 Aug - 14:48:53 10° WSW 14:53:17 64° NW 14:57:43 10° NE daylight
14 Aug - 16:32:21 10° WNW 16:35:36 19° NNW 16:38:50 10° NNE daylight
14 Aug - 18:16:06 10° NNW 18:18:36 14° N 18:21:08 10° NE daylight
14 Aug - 19:57:30 10° NW 20:01:25 28° NNE 20:05:25 10° E visible
14 Aug - 21:38:48 10° WNW 21:43:22 65° SW 21:47:58 10° SE visible
